Location: Carrières
(48.9495°N, 2.0407°E)
Time: 21:10:38
(UTC+00:00)

Courier 1B Rocket - Pass Details

Date: 21 April 2024
Orbit: 920 x 1201 km, 28.2° (Epoch: 25 May)

Event Time Altitude Azimuth Distance (km) Brightness Sun altitude
Rises 06:24:16 0° 238° (WSW) 3,940 7.7 14.6°
Reaches altitude 10° 06:29:16 10° 209° (SSW) 2,908 7.2 15.4°
Maximum altitude 06:31:41 12° 189° (S) 2,729 7.3 15.8°
Drops below altitude 10° 06:34:03 10° 169° (SSE) 2,833 7.6 16.2°
Sets 06:38:45 0° 139° (SE) 3,711 8.7 17.0°
